Regional Weather Roundup
Issued by NWS

Current Version | Previous Version | Text Only | Print | Product List | Glossary On
Versions: 1 2 3 4 5 6 7 8 9 10 11 12 13 14 15 16 17 18 19 20 21 22 23 24 25 26 27
000
ASUS42 KKEY 241610
RWRKEY

FLORIDA REGIONAL WEATHER ROUNDUP FOR THE FLORIDA KEYS
NATIONAL WEATHER SERVICE KEY WEST FLORIDA
1100 AM EST FRI NOV 24 2017

...SOUTH FLORIDA AND THE KEYS...

CITY           SKY/WX    TMP DP  RH WIND       PRES   REMARKS
FORT MYERS     PTSUNNY   73  65  75 NW12      29.92R
SW REGIONAL AP PTSUNNY   73  65  75 NW8       29.92S
NAPLES         MOSUNNY   73  65  75 NW9       29.93R
MIAMI          PTSUNNY   77  68  73 W10       29.91S
WEST KENDALL   MOSUNNY   77  68  73 W9        29.91F
HOMESTEAD      PTSUNNY   78  74  86 W7        29.90S
MARATHON       PTSUNNY   80  71  74 NW8       29.92R
KEY WEST INTL  MOSUNNY   78  69  73 NW9       29.94R

...INTERNATIONAL WEATHER...

CITY           SKY/WX    TMP DP  RH WIND       PRES   REMARKS
NASSAU BAHAMAS PTSUNNY   88  73  62 S12       29.93F HX  96
CANCUN MEXICO  PTSUNNY   79  66  65 W15       30.00S
COZUMEL MEXICO MOSUNNY   77  68  73 NW12      29.99R

ADJACENT COASTAL WATERS...

STATION/POSITION TIME  SKY/WX   TEMP    WIND        PRES    WAVE
                                AIR SEA DIR/SP/G            HT/PER
                 (UTC)          (F)     (DEG/KT/KT) (MB)    (FT/S)
PULASKI SHOAL LI 1600            76      10/ 10/ 11 1013.8S
SAND KEY         1550            75                 1014.3R
LONG KEY         NOT AVBL
MOLASSES REEF    1600            76 80  320/ 11/ 12 1013.1S
FOWEY ROCKS      1600            75 79  280/ 11/ 12 1013.3F
Buoy 42097       1600               79                N/A     4/ 7

$$




USA.gov is the U.S. government's official web portal to all federal, state and local government web resources and services.